Regional Weather Roundup
Issued by NWS

Home | Current Version | Previous Version | Graphics & Text | Print | Product List | Glossary On
Versions: 1 2 3 4 5 6 7 8 9 10 11 12 13 14 15 16 17 18 19 20 21 22 23 24 25 26 27 28 29 30 31 32 33 34 35 36 37 38 39 40 41 42 43 44 45 46 47 48 49 50
000
ASUS43 KMPX 041301
RWRMN
WEATHER ROUNDUP FOR MINNESOTA
NATIONAL WEATHER SERVICE TWIN CITIES/CHANHASSEN MN
800 AM CDT SAT JUL 04 2015


NOTE: "FAIR" INDICATES FEW OR NO CLOUDS BELOW 12,000 FEET WITH NO
SIGNIFICANT WEATHER AND/OR OBSTRUCTIONS TO VISIBILITY. N/A MEANS
CURRENT SKY AND/OR WEATHER CONDITIONS ARE NOT AVAILABLE.

MNZ060>063-068>070-041400-
   Twin Cities Metro

CITY           SKY/WX    TMP DP  RH WIND       PRES   REMARKS
TWIN CITIES    PTSUNNY   68  61  78 CALM      29.95S HAZE
ST PAUL        SUNNY     67  64  90 CALM      29.95S FOG
CRYSTAL        SUNNY     69  63  81 CALM      29.93S HAZE
BLAINE         SUNNY     68  66  94 CALM      29.95S
LAKEVILLE      SUNNY     63  61  94 S5        29.95S
EDEN PRAIRIE   MOSUNNY   65  62  90 CALM      29.94S FOG
SOUTH ST PAUL  SUNNY     68  61  78 CALM      29.95S
LAKE ELMO      FAIR      64  63  94 CALM      29.96S
$$
MNZ001>005-007-008-013>017-022>024-027-028-041400-
   Northwest Minnesota

CITY           SKY/WX    TMP DP  RH WIND       PRES   REMARKS
BEMIDJI        SUNNY     62  59  90 CALM      29.95F
HALLOCK        SUNNY     63  61  94 SE7       29.87R FOG
ROSEAU         MOSUNNY   64  57  77 S7        29.90S
WARROAD        MOSUNNY   64  61  88 S3        29.91F
THIEF RVR FALL SUNNY     63  59  88 S5        29.91S
CROOKSTON      SUNNY     66  63  88 S6        29.90S FOG
FOSSTON        SUNNY     64  59  82 CALM      29.93S HAZE
DETROIT LAKES    N/A     64  63  94 CALM      29.94F FOG
MOORHEAD         N/A     64  63  94 S8        29.91S FOG
PARK RAPIDS    CLOUDY    62  60  93 E3        29.95F FOG
MAHNOMEN       FAIR      64  61  89 S3        29.92S FOG
$$
MNZ006-009>011-018-025>026-041400-
   North Central Minnesota

CITY           SKY/WX    TMP DP  RH WIND       PRES   REMARKS
BAUDETTE       SUNNY     60  55  83 S6        29.92S
FLAG ISLAND    MOSUNNY   68  63  83 S6        29.90S
INTL FALLS     SUNNY     57  55  93 SE5       29.95F
WASKISH        SUNNY     63  59  88 SE5       29.94S FOG
BIG FORK       SUNNY     61  59  94 CALM      29.97S
LONGVILLE      SUNNY     61  59  94 CALM      29.96S FOG
GRAND RAPIDS   SUNNY     61  54  77 SE5       29.97F
CRANE LAKE     SUNNY     54  54 100 S1        29.99S
ORR            SUNNY     59  54  82 CALM      29.95F
COOK           SUNNY     57  55  94 CALM      29.98F
WALKER         FAIR      59  58  97 CALM      29.95F FOG
$$
MNZ012-019>021-037-041400-
   Northeast Minnesota

CITY           SKY/WX    TMP DP  RH WIND       PRES   REMARKS
DULUTH         SUNNY     65  58  78 E6        29.98R
ELY            SUNNY     55  54  94 CALM      29.99F
HIBBING        SUNNY     61  56  83 CALM      29.98S
DULUTH HARBOR  SUNNY     63  59  88 E9        29.98S
TWO HARBORS    SUNNY     68  61  77 NE3       29.96S
SILVER BAY     SUNNY     66  57  72 CALM      29.97S
GRAND MARAIS     N/A     54  49  83 CALM      29.99R
G MARAIS ARPRT SUNNY     63  52  67 CALM      30.02S
$$
MNZ029>031-032-039>041-046>048-054>057-064-041400-
   West Central Minnesota

CITY           SKY/WX    TMP DP  RH WIND       PRES   REMARKS
FERGUS FALLS   SUNNY     68  64  88 S3        29.92F FOG
WHEATON        SUNNY     64  63  94 CALM      29.93F FOG
MORRIS           N/A     64  64 100 E3        29.92F FOG
ALEXANDRIA     PTSUNNY   66  63  90 SE5       29.96S FOG
ELBOW LAKE     FAIR      66  64  91 SE5       29.93S FOG
WADENA         SUNNY     59  59 100 CALM      29.95S FOG
GLENWOOD       FOG       64  63  94 E3        29.95F VSB 1
APPLETON       SUNNY     66  64  94 CALM      29.92F FOG
BENSON         SUNNY     64  63  94 CALM      29.93F FOG
ORTONVILLE     CLOUDY    66  63  88 CALM      29.93S FOG
MADISON        SUNNY     66  64  94 CALM      29.93S FOG
WILLMAR        FAIR      66  64  94 CALM      29.95F FOG
$$
MNZ033>034-036-042>043-049>051-058-059-041400-
   Central Minnesota

CITY           SKY/WX    TMP DP  RH WIND       PRES   REMARKS
ST CLOUD       CLOUDY    65  62  90 CALM      29.95R FOG
SAUK CENTRE      N/A     61  61  99 CALM      29.95F FOG
PAYNESVILLE    FOG       59  60 100 CALM      29.95F VSB 1/4
AITKIN         SUNNY     59  54  82 CALM      29.95S HAZE
PINE RIVER     SUNNY     59  55  88 CALM      29.99S FOG
BRAINERD       SUNNY     61  59  93 CALM      29.96S FOG
STAPLES        SUNNY     61  59  94 CALM      29.95F FOG
LONG PRAIRIE   CLOUDY    63  61  94 CALM      29.95F FOG
LITTLE FALLS     N/A     61  61 100 CALM      29.95S FOG
LITCHFIELD     SUNNY     68  66  94 CALM      29.95F
BUFFALO        SUNNY     65  62  87 CALM      29.96S FOG
MAPLE LAKE     SUNNY     66  66  98 CALM      29.96R FOG
$$
MNZ037-044-045-052-053-041400-
   East Central Minnesota

CITY           SKY/WX    TMP DP  RH WIND       PRES   REMARKS
PRINCETON      SUNNY     64  63  94 CALM      29.95S FOG
MORA           SUNNY     61  59  94 CALM      29.97S FOG
CAMBRIDGE      SUNNY     66  57  72 CALM      29.93S HAZE
RUSH CITY      SUNNY     62  61  97 CALM      29.95S
MOOSE LAKE     SUNNY     61  57  88 CALM      29.96R
HINCKLEY       FAIR      64  59  82 CALM      29.96S
CLOQUET        SUNNY     63  57  82 CALM      29.98R
MCGREGOR       SUNNY     59  57  94 CALM      29.97S
$$
MNZ071>073-080-081-089-090-097-098-041400-
   Southwest Minnesota

CITY           SKY/WX    TMP DP  RH WIND       PRES   REMARKS
MONTEVIDEO     SUNNY     70  64  83 CALM      29.94S HAZE
GRANITE FALLS  SUNNY     66  66  97 CALM      29.95S FOG
CANBY          SUNNY     69  64  83 CALM      29.95S
MARSHALL       PTSUNNY   70  61  73 W6          N/A
REDWOOD FALLS  SUNNY     69  63  81 W3        29.94F HAZE
OLIVIA         SUNNY     64  63  94 CALM      29.93F FOG
PIPESTONE      SUNNY     64  63  94 CALM      29.98S FOG
WINDOM         MOSUNNY   64  59  82 SW6       29.98S HAZE
WORTHINGTON    SUNNY     64  57  77 SW7       29.98S
JACKSON        SUNNY     64  57  77 SW6       29.99R
TRACY          MOSUNNY   68  63  84 SW8       29.96S HAZE
SLAYTON        SUNNY     67  63  87 CALM      29.99S FOG
$$
MNZ065>067-074>077-082>085-091>093-041400-
   South Central Minnesota

CITY           SKY/WX    TMP DP  RH WIND       PRES   REMARKS
MANKATO        SUNNY     64  59  82 SW5       29.96F
NEW ULM        SUNNY     64  63  94 CALM      29.95S FOG
ST JAMES       SUNNY     66  63  88 SW3       29.97S FOG
FAIRMONT       SUNNY     64  55  72 SW3       29.97S
GLENCOE        SUNNY     64  62  93 CALM      29.95S
FARIBAULT      MOSUNNY   64  61  88 CALM      29.96S
OWATONNA       SUNNY     64  59  82 SW3       29.97S HAZE
WASECA         SUNNY     63  59  88 SW5       29.98S FOG
ALBERT LEA     SUNNY     66  61  82 CALM      29.98S
$$
MNZ078>079-086>088-094>096-041400-
   Southeast Minnesota

CITY           SKY/WX    TMP DP  RH WIND       PRES   REMARKS
ROCHESTER      SUNNY     64  59  83 SW3       29.98F
RED WING       SUNNY     64  63  94 CALM      29.94S
STANTON        SUNNY     64  61  88 CALM      29.95S
DODGE CENTER   MOSUNNY   63  61  94 SW3       29.98S
WINONA         SUNNY     64  61  88 CALM      29.96S
AUSTIN         SUNNY     63  57  82 CALM      29.98S
PRESTON        SUNNY     62  56  82 CALM      29.99S
$$
ABBREVIATIONS USED IN REMARKS
   TC - TEMPERATURES IN CELSIUS
  WCI - WIND CHILL INDEX
   HX - HEAT INDEX
  VSB - VISIBILITY
$$


USA.gov is the U.S. government's official web portal to all federal, state and local government web resources and services.